STARLINK-34583, 64713

Orbit data source: Space-Track

STARLINK-34583, 64713 is a payload satellite owned by SpaceX/Seattle (US) in LEO that was launched on Sat, 28 Jun 2025 UTC via an FALCON 9 launch vehicle from the Air Force Western Test Range (AFWTR). Payload-class satellites include a variety of spacecraft equipped with specific instruments for various scientific and technological missions. These include communications satellites like Starlink; space stations such as the ISS; scientific satellites like the Hubble; Earth observation satellites from companies like Planet Labs, Umbra, and HawkEye 360; GPS; miniature CubeSats for education and research; and military/defense satellites.

Loading next visibility...
Identifier
64713, 2025-142T
Orbit
LEO
Country
Flag of USUS
Related business
Manufacturer
SpaceX/Seattle
Mission
Operational Commercial Communications
Bus & Motor
STARLINK V2MO, Unknown motor
Mass
575 kg wet, ~530 kg dry
Launch date (UTC)
2025-06-28 (1 year ago)
Launch vehicle
FALCON 9
Launch site
Air Force Western Test Range (AFWTR)
Object type
Payload
Rocket body
Debris
Shape & HBR
Box + 2 Pan, 17.7 m
Radar Cross Section
36.964 m², Large (>1 m²)

Expand to show TLE details & history
Last TLE update: 7 hours ago

TLE from 7 hours ago
0 STARLINK-34583
1 64713U 25142T   26207.59580214  .00004569  00000-0  39042-3 0  9991
2 64713  70.0020 324.3487 0003129 266.9015  93.1786 14.98336079 60265
Epoch: 2026-07-26T14:17Z
TLE epoch observation values (Epoch: 2026-07-26T14:17:57.304Z)
Latitude
-0.00005°
Longitude
165.56845°
Altitude
574.582 km
Speed
7.574 km/s
True Right ascension
21h 37m 23s
True Declination
0° 00' 00"
Sunlit
Object was in full shadow at epoch
Visualization orbit readout
Latitude
Unknown
Longitude
Unknown
Altitude
Unknown
Speed
Unknown
Apparent Right ascension
Unknown
Apparent Declination
Unknown
Sunlit
N/A
Visualization observer readout
Local Sidereal Time
11:04:50
Azimuth
Unknown
Elevation
Unknown
Doppler factor
Unknown
Orbital elements
Apogee altitude
572.159 km
Perigee altitude
567.811 km
Semi-major axis
6,948.122 km
Eccentricity
0.00031
Inclination
70.002°
RAAN
324.3487°
Arg. of periapsis
266.9015°
True anomaly
93.2144°
Mean anomaly
93.1786°
Eccentric anomaly
93.1965°
Mean motion
3.7475 °/min
Orbital period
96.06 mins
BSTAR
0.00039042
Loading maneuver chart data...
Computing Atmospheric mass density...
Loading historical data...
Loading historical data...
Loading historical data...
Loading historical data...
Loading historical data...
Loading historical data...
Loading historical data...

Documentation

Showing up to 5 results
|